{"data":{"norad_id":49103,"epoch":"2026-05-25T02:41:19.810176Z","epoch_age_seconds":55467,"freshness":"FRESH","line1":"1 49103U 21075AE  26145.11203484  .00000425  00000+0  11458-2 0  9994","line2":"2 49103  87.8961 355.2567 0001076  80.1945 279.9305 13.12441330232163","mean_motion":13.1244133,"eccentricity":0.0001076,"inclination_deg":87.8961,"raan_deg":355.2567,"arg_perigee_deg":80.1945,"mean_anomaly_deg":279.9305,"bstar":0.0011458,"rev_number":23216,"period_min":109.71919026659,"perigee_km":1212.9128462996,"apogee_km":1214.5466160202,"semimajor_km":7591.8667311599,"source":"CELESTRAK","updated_at":"2026-05-25T13:38:22.486929Z"}}